Terminal Aerodrome Forecast
Issued by NWS

Home | Current Version | Previous Version | Graphics & Text | Print | Product List | Glossary On
Versions: 1 2 3 4 5 6 7 8 9 10 11 12 13 14 15
000
FTUS45 KGGW 271100
TAFSDY
TAF
KSDY 271134Z 2712/2812 35008KT P6SM SCT150
     FM271600 02015KT P6SM BKN090
     FM280000 01018KT P6SM VCSH BKN080
     FM280800 36015KT P6SM -SHRA OVC050
      AMD LTD TO CLD VIS AND WIND=

USA.gov is the U.S. government's official web portal to all federal, state and local government web resources and services.